CW2303 Weather Reports


Display with metric or nautical units.
time (UTC)temp
F
wind
direction
speed
MPH
gust
MPH
rain 1hr
in
rain 24hr
in
rain mn
in
humidity
%
barometer
mb
20260509081044 52 0 0.0 0.0 0.00 0.00 0.00 95 1010.2
20260509080543 52 0 0.0 0.0 0.00 0.00 0.00 95 1010.2
20260509080053 52 0 0.0 0.0 0.00 0.00 0.00 95 1010.1
20260509075543 51 0 0.0 0.0 0.00 0.00 0.00 95 1010.1
20260509075043 51 0 0.0 0.0 0.00 0.00 0.00 95 1010.2
20260509074610 52 0 0.0 0.0 0.00 0.00 0.00 95 1010.2
20260509074042 52 0 0.0 0.0 0.00 0.00 0.00 95 1010.1
20260509073546 52 0 0.0 0.0 0.00 0.00 0.00 95 1010.1
20260509073105 52 0 0.0 0.0 0.00 0.00 0.00 95 1010.0
20260509072546 52 0 0.0 0.0 0.00 0.00 0.00 95 1010.1
20260509072041 52 0 0.0 0.0 0.00 0.00 0.00 95 1010.0
20260509071556 52 0 0.0 0.0 0.00 0.00 0.00 95 1010.0
20260509071044 52 0 0.0 0.0 0.00 0.00 0.00 95 1009.9
20260509070546 52 0 0.0 0.0 0.00 0.00 0.00 95 1009.9
20260509070057 52 0 0.0 0.0 0.00 0.00 0.00 95 1010.1
20260509065544 53 0 0.0 0.0 0.00 0.00 0.00 95 1010.1
20260509065045 53 0 0.0 0.0 0.00 0.00 0.00 95 1010.1
20260509064550 52 0 0.0 0.0 0.00 0.00 0.00 95 1010.1
20260509064045 52 0 0.0 0.0 0.00 0.00 0.00 95 1010.1
20260509063546 52 0 0.0 0.0 0.00 0.00 0.00 94 1010.3
20260509063101 52 0 0.0 0.0 0.00 0.00 0.00 94 1010.3
20260509062545 52 0 0.0 0.0 0.00 0.00 0.00 94 1010.3
20260509062045 52 0 0.0 0.0 0.00 0.00 0.00 94 1010.3
20260509061556 52 0 0.0 0.0 0.00 0.00 0.00 94 1010.3
20260509061041 53 0 0.0 0.0 0.00 0.00 0.00 94 1010.3
20260509060547 53 0 0.0 0.0 0.00 0.00 0.00 94 1010.3
20260509060117 53 0 0.0 0.0 0.00 0.00 0.00 94 1010.4
20260509055545 53 0 0.0 0.0 0.00 0.00 0.00 94 1010.5
20260509055045 53 0 0.0 0.0 0.00 0.00 0.00 94 1010.5
20260509054553 53 0 0.0 0.0 0.00 0.00 0.00 93 1010.6
20260509054045 53 0 0.0 0.0 0.00 0.00 0.00 93 1010.6
20260509053545 54 0 0.0 0.0 0.00 0.00 0.00 93 1010.6
20260509053103 54 0 0.0 0.0 0.00 0.00 0.00 93 1010.4
20260509052544 54 0 0.0 0.0 0.00 0.00 0.00 94 1010.4
20260509052044 54 0 0.0 0.0 0.00 0.00 0.00 93 1010.3
20260509051601 54 0 0.0 0.0 0.00 0.00 0.00 93 1010.3
20260509051045 54 0 0.0 1.0 0.00 0.00 0.00 93 1010.3
20260509050542 54 0 0.0 1.0 0.00 0.00 0.00 92 1010.2
20260509045547 55 0 0.0 0.0 0.00 0.00 0.00 91 1010.1
20260509045045 55 0 0.0 0.0 0.00 0.00 0.00 91 1010.0
20260509044557 55 0 0.0 0.0 0.00 0.00 0.00 91 1010.0
20260509044046 55 0 0.0 0.0 0.00 0.00 0.00 91 1010.0
20260509043546 56 0 0.0 1.0 0.00 0.00 0.00 90 1010.1
20260509043057 56 0 0.0 1.0 0.00 0.00 0.00 89 1010.1
20260509042545 56 0 0.0 0.0 0.00 0.00 0.00 89 1010.2
20260509042045 57 0 0.0 0.0 0.00 0.00 0.00 88 1010.1
20260509041555 57 0 0.0 0.0 0.00 0.00 0.00 88 1010.2
20260509041046 57 0 0.0 1.0 0.00 0.00 0.00 88 1010.2
20260509040545 58 0 0.0 1.0 0.00 0.00 0.00 87 1010.2
20260509040108 58 0 0.0 1.0 0.00 0.00 0.00 86 1010.2
20260509035546 58 0 0.0 0.0 0.00 0.00 0.00 85 1010.2
20260509035046 59 0 0.0 2.0 0.00 0.00 0.00 85 1010.2
20260509034552 59 0 0.0 2.0 0.00 0.00 0.00 84 1010.2
20260509034042 59 263 0.0 1.0 0.00 0.00 0.00 84 1010.0
20260509033545 59 0 0.0 1.0 0.00 0.00 0.00 85 1010.0
20260509033126 59 0 0.0 7.0 0.00 0.00 0.00 85 1010.0
20260509032546 59 0 1.0 8.0 0.00 0.00 0.00 85 1010.0
20260509032045 59 340 3.0 8.0 0.00 0.00 0.00 85 1010.0
20260509031554 59 18 2.0 10.0 0.00 0.00 0.00 87 1010.2
20260509031045 59 13 3.0 12.0 0.00 0.00 0.00 88 1010.3
20260509030545 60 311 7.0 12.0 0.00 0.00 0.00 88 1010.6
20260509030051 60 17 6.0 12.0 0.00 0.00 0.00 88 1010.7
20260509025544 60 47 7.0 12.0 0.00 0.00 0.00 87 1010.6
20260509025046 60 326 7.0 12.0 0.00 0.00 0.00 85 1010.3
20260509024601 61 333 4.0 12.0 0.00 0.00 0.00 83 1010.0
20260509024042 62 341 7.0 17.0 0.00 0.00 0.00 80 1010.0
20260509023544 63 338 8.0 17.0 0.00 0.00 0.00 76 1010.1
20260509023050 64 321 9.0 14.0 0.00 0.00 0.00 71 1009.7
20260509022545 64 343 8.0 14.0 0.00 0.00 0.00 66 1009.4
20260509022045 64 292 3.0 6.0 0.00 0.00 0.00 64 1009.1
20260509021552 64 302 1.0 6.0 0.00 0.00 0.00 65 1008.5
20260509021046 64 209 1.0 2.0 0.00 0.00 0.00 65 1008.0
20260509020545 64 0 0.0 2.0 0.00 0.00 0.00 65 1008.0
20260509020107 64 160 0.0 2.0 0.00 0.00 0.00 65 1007.7
20260509015047 64 155 0.0 4.0 0.00 0.00 0.00 64 1007.4
20260509014550 64 0 0.0 4.0 0.00 0.00 0.00 64 1007.5
20260509014047 64 0 0.0 1.0 0.00 0.00 0.00 64 1007.4
20260509013545 64 0 0.0 2.0 0.00 0.00 0.00 64 1007.2
20260509013057 64 0 0.0 2.0 0.00 0.00 0.00 64 1007.1
20260509012544 65 0 0.0 1.0 0.00 0.00 0.00 64 1007.0
20260509012044 65 0 0.0 2.0 0.00 0.00 0.00 64 1007.0
20260509011559 65 0 0.0 3.0 0.00 0.00 0.00 63 1007.1
20260509011042 65 145 1.0 3.0 0.00 0.00 0.00 63 1007.0
20260509010545 65 143 0.0 5.0 0.00 0.00 0.00 63 1007.2
20260509010056 65 0 0.0 5.0 0.00 0.00 0.00 62 1007.3
20260509005544 65 201 1.0 3.0 0.00 0.00 0.00 61 1007.5
20260509005044 66 207 0.0 5.0 0.00 0.00 0.00 61 1007.6
20260509004558 66 144 0.0 5.0 0.00 0.00 0.00 60 1007.3
20260509004044 66 159 0.0 4.0 0.00 0.00 0.00 59 1007.4
20260509003544 67 154 0.0 2.0 0.00 0.00 0.00 58 1007.5
20260509003058 67 0 0.0 2.0 0.00 0.00 0.00 57 1007.6
20260509002543 68 225 0.0 4.0 0.00 0.00 0.00 55 1007.8
20260509002043 68 214 0.0 4.0 0.00 0.00 0.00 55 1007.7
20260509001551 68 227 1.0 4.0 0.00 0.00 0.00 54 1007.7
20260509001044 69 214 0.0 4.0 0.00 0.00 0.00 53 1007.7
20260509000544 69 0 1.0 4.0 0.00 0.00 0.00 55 1007.6
20260509000053 69 129 1.0 4.0 0.00 0.00 0.00 54 1007.4
20260508235548 69 190 0.0 5.0 0.00 0.00 0.00 54 1007.4
20260508235048 69 164 0.0 6.0 0.00 0.00 0.00 53 1007.5
20260508234557 70 202 1.0 6.0 0.00 0.00 0.00 52 1007.6
20260508234044 70 227 1.0 7.0 0.00 0.00 0.00 52 1008.0
20260508233544 70 209 2.0 7.0 0.00 0.00 0.00 52 1008.2
20260508233104 71 200 2.0 6.0 0.00 0.00 0.00 52 1008.3
20260508232543 71 139 1.0 5.0 0.00 0.00 0.00 51 1008.2
20260508232043 71 174 0.0 4.0 0.00 0.00 0.00 52 1008.3
20260508231551 71 257 1.0 4.0 0.00 0.00 0.00 49 1008.4
20260508231044 71 279 2.0 7.0 0.00 0.00 0.00 47 1008.8
20260508230543 71 251 3.0 10.0 0.00 0.00 0.00 46 1008.9
20260508230056 71 217 3.0 10.0 0.00 0.00 0.00 46 1008.9
20260508225543 71 223 3.0 10.0 0.00 0.00 0.00 46 1009.0
20260508225043 71 152 2.0 6.0 0.00 0.00 0.00 46 1009.1
20260508224556 72 184 1.0 6.0 0.00 0.00 0.00 49 1009.2
20260508224043 72 0 1.0 6.0 0.00 0.00 0.00 46 1009.2
20260508223543 72 215 1.0 8.0 0.00 0.00 0.00 45 1009.1
20260508223053 72 257 2.0 8.0 0.00 0.00 0.00 45 1009.2
20260508222544 72 254 4.0 10.0 0.00 0.00 0.00 43 1009.2
20260508222045 73 246 4.0 10.0 0.00 0.00 0.00 45 1009.0
20260508221557 73 272 1.0 5.0 0.00 0.00 0.00 48 1008.9
20260508221043 73 225 1.0 5.0 0.00 0.00 0.00 46 1008.7
20260508220543 74 217 2.0 8.0 0.00 0.00 0.00 45 1008.6
20260508220055 74 231 2.0 8.0 0.00 0.00 0.00 44 1008.4
20260508215543 75 251 3.0 8.0 0.00 0.00 0.00 45 1008.3
20260508215044 76 200 2.0 10.0 0.00 0.00 0.00 46 1008.1
20260508214552 76 191 4.0 10.0 0.00 0.00 0.00 46 1008.1
20260508214044 76 187 4.0 11.0 0.00 0.00 0.00 43 1008.1
20260508213543 76 168 5.0 11.0 0.00 0.00 0.00 46 1008.1
20260508213055 76 212 3.0 9.0 0.00 0.00 0.00 45 1008.1
20260508212543 76 225 5.0 12.0 0.00 0.00 0.00 43 1008.2
20260508212047 76 194 3.0 13.0 0.00 0.00 0.00 43 1008.2
20260508211554 76 145 5.0 13.0 0.00 0.00 0.00 45 1008.5
20260508211043 76 156 2.0 11.0 0.00 0.00 0.00 46 1008.6
20260508210545 76 192 3.0 11.0 0.00 0.00 0.00 44 1008.6
20260508210053 76 189 2.0 8.0 0.00 0.00 0.00 50 1008.7
20260508205543 76 203 3.0 8.0 0.00 0.00 0.00 46 1008.7
20260508205043 76 173 3.0 11.0 0.00 0.00 0.00 46 1008.8
20260508204554 76 147 4.0 11.0 0.00 0.00 0.00 46 1009.0
20260508204043 76 169 5.0 9.0 0.00 0.00 0.00 46 1009.0
20260508203544 76 248 3.0 7.0 0.00 0.00 0.00 47 1009.2
20260508203053 76 197 3.0 11.0 0.00 0.00 0.00 46 1009.2
20260508202547 76 214 4.0 11.0 0.00 0.00 0.00 46 1009.4
20260508202044 76 143 4.0 9.0 0.00 0.00 0.00 44 1009.4
20260508201553 76 172 4.0 8.0 0.00 0.00 0.00 46 1009.6
20260508201043 76 171 4.0 8.0 0.00 0.00 0.00 47 1009.6
20260508200543 76 204 3.0 10.0 0.00 0.00 0.00 48 1009.8
20260508200054 75 209 2.0 10.0 0.00 0.00 0.00 46 1009.9
20260508195543 75 132 5.0 10.0 0.00 0.00 0.00 46 1010.0
20260508195043 75 182 4.0 10.0 0.00 0.00 0.00 45 1010.1
20260508194607 75 178 3.0 9.0 0.00 0.00 0.00 43 1010.1
20260508194044 74 219 3.0 10.0 0.00 0.00 0.00 48 1010.3
20260508193546 74 206 3.0 10.0 0.00 0.00 0.00 48 1010.3
20260508193117 74 180 4.0 10.0 0.00 0.00 0.00 49 1010.3
20260508192544 73 206 3.0 10.0 0.00 0.00 0.00 51 1010.5
20260508192047 74 252 2.0 9.0 0.00 0.00 0.00 53 1010.6
20260508191606 73 142 4.0 7.0 0.00 0.00 0.00 52 1010.6
20260508191043 73 196 3.0 9.0 0.00 0.00 0.00 51 1010.7
20260508190542 72 216 3.0 9.0 0.00 0.00 0.00 54 1010.8
20260508190110 72 226 3.0 7.0 0.00 0.00 0.00 52 1011.0
20260508185545 72 250 3.0 8.0 0.00 0.00 0.00 51 1011.0
20260508185045 72 239 3.0 10.0 0.00 0.00 0.00 53 1011.1
20260508184553 72 244 3.0 10.0 0.00 0.00 0.00 50 1011.1
20260508184047 72 173 4.0 7.0 0.00 0.00 0.00 53 1011.2
20260508183545 73 241 2.0 8.0 0.00 0.00 0.00 56 1011.2
20260508183057 73 232 3.0 8.0 0.00 0.00 0.00 57 1011.3
20260508182545 73 164 3.0 8.0 0.00 0.00 0.00 56 1011.3
20260508182045 73 196 2.0 8.0 0.00 0.00 0.00 58 1011.4
20260508181555 73 213 3.0 8.0 0.00 0.00 0.00 59 1011.3
20260508181047 72 170 2.0 8.0 0.00 0.00 0.00 54 1011.5
20260508180546 72 196 2.0 10.0 0.00 0.00 0.00 57 1011.6
20260508180058 72 258 2.0 10.0 0.00 0.00 0.00 54 1011.5
20260508175545 72 153 4.0 8.0 0.00 0.00 0.00 56 1011.6
20260508175048 72 150 2.0 9.0 0.00 0.00 0.00 59 1011.7
20260508174551 72 183 4.0 9.0 0.00 0.00 0.00 55 1011.8
20260508174046 72 210 4.0 9.0 0.00 0.00 0.00 58 1011.8
20260508173546 71 107 2.0 9.0 0.00 0.00 0.00 58 1011.8
20260508173051 71 216 4.0 9.0 0.00 0.00 0.00 54 1012.0
20260508172548 71 239 2.0 9.0 0.00 0.00 0.00 56 1012.0
20260508172046 71 200 3.0 9.0 0.00 0.00 0.00 55 1012.1
20260508171552 71 184 3.0 8.0 0.00 0.00 0.00 58 1012.2
20260508171045 71 209 5.0 8.0 0.00 0.00 0.00 58 1012.3
20260508170548 70 193 1.0 9.0 0.00 0.00 0.00 56 1012.3
20260508170059 69 183 3.0 9.0 0.00 0.00 0.00 58 1012.4
20260508165542 68 234 2.0 9.0 0.00 0.00 0.00 58 1012.6
20260508165042 68 227 2.0 10.0 0.00 0.00 0.00 60 1012.7
20260508164553 68 250 5.0 10.0 0.00 0.00 0.00 58 1012.8
20260508164042 69 263 3.0 10.0 0.00 0.00 0.00 57 1012.7
20260508163545 69 209 3.0 10.0 0.00 0.00 0.00 59 1012.7
20260508163105 68 235 5.0 10.0 0.00 0.00 0.00 56 1012.8
20260508162542 68 229 3.0 10.0 0.00 0.00 0.00 57 1012.9
20260508162045 68 234 3.0 11.0 0.00 0.00 0.00 54 1012.9
20260508161559 68 192 2.0 11.0 0.00 0.00 0.00 58 1013.1
20260508161042 68 211 3.0 9.0 0.00 0.00 0.00 60 1013.0
20260508160541 68 182 3.0 9.0 0.00 0.00 0.00 56 1013.1
20260508160053 68 164 3.0 12.0 0.00 0.00 0.00 58 1013.2
20260508155541 68 140 4.0 12.0 0.00 0.00 0.00 59 1013.3
20260508155043 68 232 3.0 9.0 0.00 0.00 0.00 58 1013.3
20260508154556 67 217 3.0 9.0 0.00 0.00 0.00 60 1013.5
20260508154043 67 187 2.0 7.0 0.00 0.00 0.00 62 1013.7
20260508153543 66 211 3.0 7.0 0.00 0.00 0.00 60 1013.6
20260508153106 67 124 3.0 9.0 0.00 0.00 0.00 60 1013.6
20260508152545 66 201 4.0 10.0 0.00 0.00 0.00 59 1013.7
20260508152043 66 223 3.0 10.0 0.00 0.00 0.00 58 1013.6
20260508151553 65 244 3.0 9.0 0.00 0.00 0.00 61 1013.5
20260508151043 65 233 4.0 9.0 0.00 0.00 0.00 61 1013.6
20260508150543 65 242 3.0 10.0 0.00 0.00 0.00 58 1013.6
20260508150054 65 254 3.0 11.0 0.00 0.00 0.00 60 1013.7
20260508145546 64 234 5.0 11.0 0.00 0.00 0.00 60 1013.6
20260508145043 64 226 3.0 14.0 0.00 0.00 0.00 59 1013.7
20260508144551 64 212 4.0 14.0 0.00 0.00 0.00 62 1013.9
20260508144043 64 261 3.0 8.0 0.00 0.00 0.00 62 1013.9
20260508143544 64 236 2.0 8.0 0.00 0.00 0.00 62 1014.0
20260508143116 64 232 2.0 10.0 0.00 0.00 0.00 64 1014.0
20260508142544 63 161 1.0 10.0 0.00 0.00 0.00 64 1014.0
20260508142043 63 234 2.0 7.0 0.00 0.00 0.00 63 1014.0
20260508141605 63 194 3.0 8.0 0.00 0.00 0.00 66 1014.0
20260508141042 63 232 3.0 9.0 0.00 0.00 0.00 63 1014.0
20260508140543 62 196 2.0 9.0 0.00 0.00 0.00 65 1013.9
20260508140105 62 155 2.0 10.0 0.00 0.00 0.00 66 1014.0
20260508135543 62 207 3.0 10.0 0.00 0.00 0.00 66 1014.0
20260508135042 61 221 3.0 9.0 0.00 0.00 0.00 66 1014.0
20260508134554 61 212 3.0 10.0 0.00 0.00 0.00 66 1014.0
20260508134044 60 199 4.0 10.0 0.00 0.00 0.00 66 1013.9
20260508133544 60 215 3.0 10.0 0.00 0.00 0.00 66 1013.9
20260508133050 59 189 3.0 10.0 0.00 0.00 0.00 68 1013.8
20260508132543 59 153 3.0 8.0 0.00 0.00 0.00 68 1014.0
20260508132043 58 206 2.0 10.0 0.00 0.00 0.00 69 1014.1
20260508131550 58 217 2.0 11.0 0.00 0.00 0.00 69 1014.1
20260508131044 57 171 4.0 11.0 0.00 0.00 0.00 70 1014.0
20260508130547 57 225 3.0 9.0 0.00 0.00 0.00 71 1014.0
20260508130051 56 161 2.0 9.0 0.00 0.00 0.00 73 1013.9
20260508125543 56 167 2.0 6.0 0.00 0.00 0.00 73 1013.8
20260508125042 55 204 2.0 6.0 0.00 0.00 0.00 73 1013.8
20260508124553 55 197 2.0 7.0 0.00 0.00 0.00 73 1013.8
20260508124042 55 212 2.0 9.0 0.00 0.00 0.00 73 1013.7
20260508123542 54 152 1.0 9.0 0.00 0.00 0.00 74 1013.6
20260508123052 54 163 1.0 6.0 0.00 0.00 0.00 74 1013.6
20260508122542 53 144 2.0 6.0 0.00 0.00 0.00 75 1013.6
20260508122041 53 152 1.0 5.0 0.00 0.00 0.00 76 1013.6
20260508121552 52 199 1.0 5.0 0.00 0.00 0.00 77 1013.6
20260508121041 52 0 1.0 4.0 0.00 0.00 0.00 77 1013.6
20260508120542 51 218 1.0 4.0 0.00 0.00 0.00 77 1013.6
20260508120111 51 0 0.0 3.0 0.00 0.00 0.00 77 1013.6
20260508115546 51 0 0.0 5.0 0.00 0.00 0.00 78 1013.6
20260508115045 50 192 0.0 5.0 0.00 0.00 0.00 78 1013.6
20260508114602 50 0 1.0 5.0 0.00 0.00 0.00 77 1013.7
20260508114042 50 151 1.0 4.0 0.00 0.00 0.00 78 1013.6
20260508113543 50 0 0.0 4.0 0.00 0.00 0.00 78 1013.5
20260508113046 50 194 0.0 4.0 0.00 0.00 0.00 78 1013.5
20260508112545 50 190 0.0 4.0 0.00 0.00 0.00 78 1013.5
20260508112042 50 193 0.0 4.0 0.00 0.00 0.00 78 1013.4
20260508111552 49 151 0.0 5.0 0.00 0.00 0.00 78 1013.3
20260508111043 49 0 0.0 5.0 0.00 0.00 0.00 78 1013.3
20260508110541 49 138 0.0 5.0 0.00 0.00 0.00 78 1013.2
20260508105542 49 138 0.0 3.0 0.00 0.00 0.00 79 1013.1
20260508105043 49 143 0.0 4.0 0.00 0.00 0.00 79 1013.1
20260508104550 49 0 0.0 6.0 0.00 0.00 0.00 79 1013.0
20260508104042 49 0 1.0 6.0 0.00 0.00 0.00 79 1013.1
20260508103543 49 0 0.0 4.0 0.00 0.00 0.00 79 1013.0
20260508103050 49 152 0.0 3.0 0.00 0.00 0.00 80 1013.0
20260508102542 49 0 0.0 3.0 0.00 0.00 0.00 80 1013.2
20260508102043 48 0 0.0 3.0 0.00 0.00 0.00 80 1013.1
20260508101551 48 0 0.0 3.0 0.00 0.00 0.00 80 1013.1
20260508101042 48 159 0.0 1.0 0.00 0.00 0.00 81 1013.2
20260508100545 48 153 0.0 0.0 0.00 0.00 0.00 81 1013.3
20260508100120 48 0 0.0 0.0 0.00 0.00 0.00 82 1013.3
20260508095542 48 0 0.0 0.0 0.00 0.00 0.00 82 1013.3
20260508095042 48 0 0.0 0.0 0.00 0.00 0.00 81 1013.3
20260508094552 48 0 0.0 0.0 0.00 0.00 0.00 81 1013.3
20260508094041 48 0 0.0 0.0 0.00 0.00 0.00 81 1013.2
20260508093544 48 0 0.0 1.0 0.00 0.00 0.00 81 1013.2
20260508093051 48 0 0.0 1.0 0.00 0.00 0.00 81 1013.2
20260508092542 48 0 0.0 2.0 0.00 0.00 0.00 80 1013.2
20260508092043 48 161 0.0 2.0 0.00 0.00 0.00 79 1013.2
20260508091608 49 137 0.0 2.0 0.00 0.00 0.00 79 1013.2
20260508091042 49 0 0.0 2.0 0.00 0.00 0.00 79 1013.3
20260508090543 49 0 0.0 1.0 0.00 0.00 0.00 79 1013.3
20260508090053 49 0 0.0 2.0 0.00 0.00 0.00 78 1013.3
20260508085541 49 0 0.0 2.0 0.00 0.00 0.00 78 1013.3
20260508085041 49 146 0.0 2.0 0.00 0.00 0.00 78 1013.3
20260508084554 49 139 0.0 2.0 0.00 0.00 0.00 78 1013.3
20260508084044 49 0 0.0 2.0 0.00 0.00 0.00 78 1013.4
20260508083541 49 128 0.0 2.0 0.00 0.00 0.00 78 1013.3
20260508083051 49 0 0.0 2.0 0.00 0.00 0.00 78 1013.4
20260508082544 49 154 0.0 2.0 0.00 0.00 0.00 78 1013.5
20260508082042 49 144 0.0 1.0 0.00 0.00 0.00 77 1013.6
20260508081610 49 0 0.0 2.0 0.00 0.00 0.00 77 1013.6